Presure
98 179 127 168 205 142 149 96 145 108 123 92 89 141 131 134 130 122 110 120 126 119 117 97 124 122 129 128 119 110 110 130 135 131 140 132 111 106 127 133 109 127 129 119 141 126 142 144 139
334 116 166 196 229 128 131 140 134 135 126 107 133 121 122 134 103 130 106 106 82 122 115 128 127 116 112 126 123 134 124 140 122 116 111 122 110 121 119 115 121 128 123 125 134 135 147 138 161
159 153 131 142 139 142 145 120 179 126 121 119 140 131 144 150 141 120 155 109 131 120 112 121 124 139 109 133 128 135 134 108 124 95 139 137 121 113 145 122 146 131 130 124 130 139 153 142 152
117 127 132 116 150 247 214 112 138 140 150 136 148 136 114 131 148 145 134 130 101 129 125 102 131 121 126 150 139 148 108 106 140 143 108 134 106 107 122 112 108 105 128 124 153 118 168 152 154
143 272 149 190 112 142 159 132 128 146 114 124 138 135 91 93 128 126 97 104 137 115 128 134 137 129 143 129 108 131 152 141 135 139 154 130 120 129 115 132 138 190 147 128 136 155 181 175 165
141 101 148 147 140 184 162 134 104 119 133 145 121 149 128 148 129 131 132 111 114 114 132 131 139 95 128 139 160 126 141 113 111 118 113 116 127 123 129 118 143 126 137 198 171 148 201 194 190
120 269 251 132 140 142 165 135 125 128 140 131 136 132 128 159 140 100 130 104 124 135 144 99 125 140 110 96 105 131 120 117 123 139 140 123 182 126 138 144 136 141 201 147 199 172 191 205 188
116 140 135 269 147 151 147 111 141 154 153 141 143 148 158 144 157 135 113 144 137 142 138 132 137 108 129 134 126 135 142 150 118 121 119 133 133 210 130 188 127 156 143 199 111 178 190 187 183
167 108 142 230 148 229 113 145 134 125 145 144 152 124 119 143 128 114 109 130 140 143 143 119 139 151 123 126 130 130 117 119 137 133 131 129 129 142 134 163 174 165 175 187 186 192 186 185 157
239 253 165 140 139 145 201 140 126 141 143 149 139 121 122 126 127 133 135 125 134 128 141 140 134 127 129 139 180 137 120 127 122 117 210 139 165 145 175 187 195 173 193 189 184 184 184 188 185
249 257 259 139 134 260 127 148 142 145 162 140 123 141 126 117 114 135 141 136 127 126 119 114 120 125 123 130 127 142 125 142 117 124 127 136 191 190 199 198 217 200 194 185 188 187 186 184 192
243 242 264 257 143 142 123 165 145 159 163 120 154 140 143 134 122 127 131 112 116 117 110 137 148 140 133 133 127 177 138 117 140 137 203 190 181 184 143 185 191 194 176 195 199 195 182 189 186
252 251 253 144 193 141 152 192 146 175 173 135 135 143 151 125 132 132 128 113 115 181 126 134 130 140 129 133 123 123 118 133 154 137 164 193 206 198 191 189 186 197 189 189 167 187 201 201 194
247 215 264 238 131 263 188 165 234 122 111 139 120 126 118 118 134 141 123 140 119 132 116 137 129 127 133 120 115 121 137 139 192 160 144 191 184 192 195 195 187 183 184 182 193 197 205 209 199
246 243 229 233 158 255 263 151 140 140 142 149 157 118 115 119 143 132 137 120 139 139 126 125 123 133 126 125 139 177 140 191 192 201 191 199 190 189 184 182 185 186 195 202 216 190 196 198 199
245 243 247 252 223 249 128 151 160 120 130 121 129 116 116 145 132 114 129 129 125 123 127 216 131 130 133 136 131 173 186 126 193 193 199 195 189 192 191 197 206 204 192 194 197 202 238 233 230
168 236 247 238 172 131 155 145 199 179 156 131 129 134 119 134 135 126 123 126 138 184 137 130 136 139 174 130 171 170 178 204 195 183 179 193 195 203 207 196 196 191 194 200 202 220 210 225 223
128 234 207 237 204 227 155 147 132 148 142 143 130 132 127 194 144 126 191 129 130 131 134 133 215 189 162 194 228 218 216 203 204 215 221 223 214 203 191 191 195 200 201 233 230 215 201 196 222
228 230 190 227 134 149 229 230 115 116 125 140 130 126 143 117 138 129 128 125 124 190 231 224 205 208 227 222 181 223 208 209 202 200 192 194 187 197 211 227 236 229 217 214 199 195 220 211 207
199 221 221 123 228 132 121 133 130 137 128 129 162 238 231 137 129 130 135 140 197 212 215 209 203 209 218 224 206 203 198 196 196 194 198 204 204 227 234 226 219 206 197 200 212 205 205 205 206
215 219 207 187 223 136 222 225 227 226 132 218 233 209 176 228 217 208 209 207 216 220 178 211 210 204 206 201 201 201 197 200 201 201 207 232 232 225 205 197 197 190 214 204 201 203 203 201 211
213 216 217 223 230 217 220 225 225 216 229 152 132 131 134 194 225 217 213 211 204 204 201 197 201 201 199 205 203 203 205 224 223 232 233 209 200 202 195 218 210 207 202 202 204 201 201 202 210
223 224 217 224 219 214 223 219 224 136 222 215 218 222 219 220 135 217 213 209 211 210 214 211 207 208 208 215 231 215 218 233 224 200 198 202 193 196 214 206 210 205 197 204 196 197 198 191 212
222 228 223 217 221 222 220 230 219 214 206 216 217 215 212 218 214 211 214 212 214 211 217 235 222 217 210 223 223 216 208 199 203 197 193 194 202 211 207 206 200 195 194 194 195 194 194 204 205
221 217 222 233 215 226 225 227 220 220 218 215 215 212 209 211 222 227 228 223 218 213 207 209 226 232 215 210 198 195 200 198 194 195 201 213 206 212 221 201 193 194 196 196 188 195 203 203 226
216 228 237 217 210 220 222 215 204 199 215 216 227 228 220 215 217 208 188 209 219 213 220 226 209 203 201 192 198 188 195 196 200 219 207 195 195 209 207 200 200 195 195 192 197 197 206 218 243
228 237 219 219 219 218 214 214 218 220 223 226 218 224 209 200 207 206 217 218 214 219 213 205 199 198 189 198 184 196 204 205 220 201 203 199 201 203 194 197 201 197 196 200 200 212 218 238 223
223 223 227 218 218 222 228 219 222 218 206 208 211 216 214 215 225 219 214 211 218 211 203 198 191 188 199 194 192 196 191 194 204 198 197 208 205 209 200 193 196 202 194 197 211 218 223 231 216
225 202 210 218 214 215 214 208 209 215 210 205 209 211 211 210 212 212 222 221 214 206 199 193 193 198 195 191 192 191 192 195 206 206 205 208 210 205 196 195 198 200 195 209 221 223 239 213 218
213 224 213 209 206 205 206 208 211 210 216 218 214 207 207 202 222 222 217 208 199 200 197 190 194 193 193 190 191 193 199 205 207 213 225 205 199 188 194 201 200 198 212 223 221 250 213 217 228
Wind_Speed
40 63 64 60 87 77 79 35 74 32 46 27 17 62 41 52 54 51 47 52 54 50 43 32 44 40 49 49 43 42 40 54 63 60 65 59 49 48 54 61 53 62 62 58 70 65 74 73 74
44 58 65 66 66 56 64 73 60 56 55 44 59 36 33 47 40 57 44 40 18 56 50 55 49 44 39 49 51 60 48 65 46 50 50 56 52 55 55 55 58 61 60 64 71 72 77 75 80
61 60 55 59 58 60 58 35 68 50 50 49 66 56 60 61 52 44 52 47 60 54 54 56 52 61 39 50 51 58 56 45 53 42 68 64 57 56 72 60 70 65 64 64 70 75 82 77 82
49 62 62 40 73 71 72 48 66 63 68 72 64 64 33 54 56 56 56 61 49 64 55 34 62 38 42 64 56 69 43 48 65 69 53 60 55 55 58 61 58 51 64 66 78 67 85 84 84
70 37 66 64 33 59 63 62 61 64 49 50 57 57 33 31 39 40 47 48 69 59 68 68 64 47 58 44 37 43 70 63 56 66 76 62 56 64 60 69 65 88 80 66 78 85 87 88 90
49 37 66 68 54 48 72 61 47 51 61 73 40 65 40 62 41 48 52 48 49 44 71 59 59 37 44 56 72 56 65 49 52 51 55 57 64 60 70 62 79 64 75 77 84 86 81 88 89
46 35 45 45 63 67 59 64 66 62 68 51 58 45 30 72 52 35 58 51 63 73 78 19 55 62 40 37 42 50 48 51 52 69 72 63 83 64 78 79 74 79 74 76 83 93 84 84 91
37 34 50 43 47 66 70 55 75 68 76 69 64 55 75 65 68 51 54 72 75 78 72 66 62 39 44 44 43 53 66 76 53 58 60 66 73 77 68 67 66 87 85 81 66 90 90 93 93
38 32 51 49 60 42 50 68 59 37 63 61 64 28 38 64 43 49 51 61 67 76 78 61 68 74 49 50 47 48 53 54 67 60 63 69 68 80 72 87 89 76 85 87 90 89 92 94 86
35 38 44 54 56 59 48 62 37 56 55 61 48 44 31 38 44 55 63 60 60 57 71 71 65 58 54 65 77 64 56 57 57 57 76 67 70 79 86 72 79 86 85 89 91 93 95 95 99
34 40 37 52 47 35 51 71 57 61 76 41 38 57 53 46 48 53 56 46 42 57 58 57 61 60 58 58 58 75 60 77 59 63 66 74 84 81 82 85 81 85 90 90 95 95 97 99 104
36 32 37 29 51 57 42 27 41 72 72 42 68 55 60 49 43 39 42 51 50 56 55 65 81 74 64 64 61 63 64 62 70 71 79 81 86 85 80 87 88 91 92 95 101 103 98 104 100
37 35 31 48 32 48 54 35 46 45 45 59 50 60 71 43 56 43 44 53 55 52 58 59 58 71 64 65 63 65 65 72 73 74 78 80 86 85 89 88 90 93 97 101 90 101 110 111 109
21 24 27 30 39 28 47 36 48 38 48 60 44 44 46 44 50 50 45 59 60 59 55 59 59 59 63 62 59 65 73 73 79 74 79 82 84 87 88 89 91 94 100 101 110 115 111 104 103
22 20 23 25 37 26 28 52 39 44 46 59 70 49 45 46 50 41 41 53 65 62 59 59 61 62 63 63 72 68 72 73 76 81 82 87 84 86 88 90 94 98 108 108 98 100 102 104 106
18 19 24 30 30 32 40 50 36 43 42 46 42 47 43 60 47 46 46 49 56 59 62 58 60 63 64 67 70 72 74 68 79 82 85 89 85 88 91 100 100 92 93 96 96 99 81 82 83
28 26 29 29 37 40 36 41 42 50 45 46 38 42 46 44 43 46 51 54 54 55 56 61 62 67 65 69 74 72 76 84 82 83 85 90 90 97 94 90 91 91 94 96 98 91 89 82 82
31 25 29 30 23 28 37 33 43 38 47 46 40 44 46 38 48 51 46 55 55 57 60 62 56 59 63 67 62 70 86 90 93 76 69 69 72 78 84 87 90 93 95 73 75 83 88 91 81
23 21 24 19 40 37 21 25 37 39 42 40 44 46 52 50 48 52 53 54 56 54 42 43 54 50 51 57 68 56 56 57 62 66 75 73 81 83 89 86 72 73 78 79 84 87 76 85 88
22 16 17 40 18 38 39 39 43 47 45 43 44 37 40 53 56 53 53 56 40 41 41 44 51 51 46 47 51 56 62 66 68 72 76 78 80 78 71 73 72 77 80 81 77 83 85 86 88
18 17 23 24 16 39 23 27 29 32 46 35 33 36 41 37 38 44 44 45 42 42 52 45 45 51 52 55 57 62 64 66 69 71 76 68 66 67 71 74 77 80 73 79 84 84 87 87 91
22 20 18 16 17 22 23 22 23 27 28 44 49 50 50 40 35 36 38 42 46 43 45 50 52 56 60 61 63 65 69 69 69 64 60 63 67 70 73 70 75 75 81 84 85 88 89 90 90
26 25 20 18 24 27 25 25 21 43 26 27 25 28 33 35 52 35 40 44 47 47 46 49 53 55 58 60 55 58 59 53 55 59 63 65 68 73 72 76 73 77 82 82 87 89 90 89 95
19 23 23 24 28 30 24 25 23 27 30 32 31 28 31 36 39 39 38 42 45 48 46 42 48 49 52 51 49 51 52 58 58 61 65 68 72 72 71 73 75 80 84 88 90 91 92 94 95
20 22 23 23 29 27 25 22 22 24 27 29 29 30 34 39 40 36 32 33 35 40 43 43 43 41 44 46 50 52 53 58 61 64 67 66 66 70 71 71 78 82 85 89 87 92 94 96 101
23 26 25 26 28 23 23 17 28 32 31 31 29 27 27 31 34 36 42 36 34 36 36 35 41 43 45 50 51 54 56 59 63 64 64 66 72 71 72 77 79 83 87 89 93 94 100 102 98
22 25 23 24 25 21 20 25 27 28 27 27 28 25 27 33 33 37 36 36 34 32 33 38 41 45 52 53 57 58 59 59 61 64 65 69 72 74 78 80 84 87 90 94 96 101 102 104 101
22 23 26 26 27 21 20 25 34 29 31 28 29 28 24 25 31 34 35 35 33 33 37 39 45 51 53 57 60 60 64 64 65 68 72 72 74 75 80 84 89 92 94 98 104 103 104 104 105
19 20 19 23 27 24 20 25 30 30 28 29 31 28 29 30 32 32 35 34 35 37 38 42 47 50 55 59 61 64 66 68 68 69 73 75 76 80 85 89 92 95 97 104 106 104 106 105 109
23 22 20 23 27 31 23 25 28 29 27 25 28 30 31 33 32 33 33 36 40 43 44 47 50 53 57 61 64 67 68 70 72 74 74 76 80 84 90 94 96 98 103 107 106 107 106 111 115
Wind_Direction
252 254 257 252 244 241 235 256 241 240 262 245 251 247 257 250 249 261 267 273 269 278 277 271 274 274 277 280 281 276 277 292 286 290 287 286 284 289 291 291 288 290 291 291 292 292 292 291 289
233 252 249 243 235 260 248 243 259 248 258 249 255 266 252 255 251 254 265 272 270 276 279 279 279 275 268 276 276 280 285 279 286 281 281 285 285 291 290 290 291 294 295 296 296 295 292 294 291
244 241 246 239 240 253 238 249 237 261 267 260 248 264 252 249 248 261 250 268 266 269 279 279 276 274 279 284 278 282 285 279 283 288 287 290 288 289 286 292 289 294 298 295 297 296 290 294 289
258 260 252 253 242 234 238 241 250 246 243 249 240 253 242 260 246 251 262 265 265 269 264 293 273 278 287 274 278 275 279 283 284 286 284 291 289 292 289 289 293 297 297 294 293 292 289 291 292
249 230 238 232 261 249 242 251 259 244 243 255 253 253 258 272 261 265 262 268 260 270 272 270 276 276 284 282 283 291 282 289 294 290 286 290 284 289 285 293 293 286 295 297 297 296 291 291 293
257 240 244 245 252 245 228 252 243 248 253 244 264 251 264 258 266 266 249 276 269 268 271 276 277 280 285 288 279 285 291 279 282 281 284 285 286 288 290 288 296 294 296 284 290 297 295 296 296
263 227 230 261 254 252 238 244 254 250 249 249 257 254 267 243 264 269 268 268 266 271 271 280 273 273 282 284 284 288 280 283 283 293 294 287 282 291 294 296 295 296 283 294 297 290 295 294 296
260 260 257 223 260 244 232 240 245 232 237 248 256 255 241 259 246 258 267 257 271 267 279 285 285 279 291 293 281 292 289 286 287 284 287 292 290 277 294 285 292 293 299 293 284 294 294 297 298
249 235 250 227 241 225 238 232 249 246 248 255 241 237 249 260 256 247 261 273 270 267 271 281 289 280 285 289 289 284 281 280 290 293 291 289 292 294 295 292 290 291 292 294 294 292 294 296 291
223 219 246 246 249 236 235 247 264 256 259 249 241 249 246 263 263 268 265 265 266 274 272 279 290 289 290 290 275 287 286 288 287 289 276 289 285 293 289 285 282 292 285 289 293 294 294 294 293
217 222 221 238 248 231 237 236 253 256 246 251 237 255 250 247 262 262 263 270 277 276 277 283 284 286 287 291 292 294 289 291 292 291 290 297 283 281 285 286 281 285 288 292 290 291 292 295 295
212 224 223 226 237 240 251 237 256 245 244 234 244 262 261 262 258 261 272 266 261 268 279 284 277 283 291 291 289 272 287 293 292 292 269 282 283 286 297 287 289 288 291 290 289 292 293 292 294
210 223 228 232 217 236 243 232 245 221 229 243 262 256 253 246 259 269 260 267 270 258 277 283 284 282 286 291 289 292 294 292 285 292 287 283 277 285 285 286 289 288 290 292 292 292 290 289 291
220 223 234 234 232 212 234 220 203 221 246 244 257 256 257 256 268 270 255 276 264 278 276 282 278 279 283 280 287 285 283 287 275 283 294 282 283 282 285 285 288 290 290 293 291 290 288 290 291
208 200 197 203 247 209 207 238 248 247 252 251 244 254 265 261 269 263 267 259 274 277 271 272 277 281 280 283 286 268 284 272 274 270 276 272 283 283 287 289 286 286 281 286 288 288 288 289 290
186 195 195 197 206 205 217 240 234 242 224 240 238 254 268 266 263 271 267 261 263 267 272 240 278 278 280 284 282 275 275 285 273 274 273 276 283 282 281 281 280 282 286 286 287 288 294 293 293
208 195 193 193 215 226 236 242 225 240 243 249 252 263 261 266 268 269 271 268 275 261 280 277 282 283 267 280 278 277 277 266 273 280 283 280 281 280 280 283 283 285 286 288 290 289 292 294 294
249 201 207 198 212 202 239 230 236 237 251 255 254 257 256 238 260 262 249 269 273 276 278 278 243 253 274 264 257 264 263 265 266 272 276 278 278 278 283 283 285 285 286 291 291 290 291 294 297
203 210 230 201 221 227 203 211 255 258 248 259 253 252 267 267 264 261 263 268 273 266 241 245 250 255 256 260 280 265 264 266 269 272 276 281 281 281 282 283 287 286 284 287 289 292 294 294 295
231 205 197 237 209 230 256 231 238 244 258 248 241 227 229 257 264 267 271 276 264 252 253 254 258 261 267 267 266 268 270 271 275 277 279 280 282 282 286 285 286 287 290 292 291 292 293 294 296
222 223 231 232 214 246 211 218 217 216 252 222 220 231 248 222 219 232 239 245 249 253 265 259 261 266 269 268 271 272 273 275 277 279 282 283 284 283 284 288 292 293 289 288 289 292 294 298 300
215 223 225 227 222 217 225 222 227 232 223 245 254 259 261 246 225 234 245 254 256 256 260 263 266 268 271 271 272 275 276 279 279 283 285 285 287 289 290 286 287 288 289 291 294 296 299 300 302
217 224 217 226 224 219 228 230 226 255 235 245 249 251 252 252 268 246 248 258 262 263 261 262 265 269 271 275 277 275 278 281 282 286 288 290 290 292 285 286 286 289 293 296 296 297 299 301 304
221 225 221 220 227 233 219 225 224 230 228 240 241 242 249 252 256 253 249 253 259 266 268 271 272 272 275 277 278 279 282 286 289 290 291 293 290 289 289 290 292 293 293 294 296 299 302 301 302
229 223 231 227 230 233 235 228 228 240 242 238 239 242 250 253 260 263 264 262 262 266 270 273 273 275 276 279 283 288 291 291 291 290 289 289 291 293 291 290 288 290 291 292 298 299 301 303 305
237 237 230 231 239 236 246 236 233 245 245 248 257 250 248 257 262 269 276 270 268 269 267 266 274 280 282 282 286 286 290 289 289 290 292 291 290 290 288 288 289 289 293 298 302 305 304 306 309
244 234 244 247 247 246 239 252 256 262 259 258 253 256 248 259 265 269 272 270 271 271 274 277 281 285 283 289 288 288 292 295 296 292 293 291 289 288 292 293 294 297 300 303 303 306 308 310 308
254 260 250 257 261 263 266 263 266 261 268 275 275 276 265 268 270 267 268 275 272 274 279 284 286 287 287 289 291 293 294 297 300 296 293 291 291 297 297 300 302 302 305 306 307 308 308 309 308
261 246 264 275 273 267 251 245 255 267 268 277 279 282 284 279 277 276 271 273 277 279 281 282 282 285 286 289 294 297 298 298 297 296 298 301 301 299 300 302 303 303 305 305 307 308 310 308 307
256 262 250 252 262 271 268 270 273 274 279 276 279 278 278 280 273 271 276 280 283 284 285 286 288 289 291 294 296 296 296 300 303 304 305 300 299 303 303 301 303 304 305 308 309 310 308 308 308